Zurück zum Katalog

CZ-6A DEB

AktivSSO
NORAD 54935·DEBRIS·🇨🇳 China

Gestartet Nov 11, 2022 von Taiyuan Satellite Launch Center

Loading…

Nächste Überflüge (nächste 24 Stunden)

TLE

AktuellSource: Space-Track

Epoche: Sep 14, 2026, 01:15 UTC

1 54935U 22151RY  26257.05216426  .00002033  00000-0  74951-3 0  9992
2 54935  98.7278 283.3023 0006561 101.5263 258.6658 14.33630289199352

Verfolge CZ-6A DEB in Echtzeit mit AllMySat

Download on the App Store